[[{"header":{"parameterUnit":"m.s-1","parameterCategory":1,"la1":30.2991,"la2":30.254,"lo1":-89.0895,"lo2":-89.0444,"dy":0.0017,"dx":0.0017,"nx":28,"ny":28,"refTime":"2024-04-12T21:00:00:Z","depth":0,"parameterNumber":2,"parameterNumberName":"U-component_of_WINDS"},"data":[0,0,0,0,0,0,0,0,0,0,0,0,0,0,0,0,0,0,0,0,0,0,0,0,0,0,0,0,0,0,0,0,0,0,0,0,0,0,0,0,0,0,0,0,0,0,0,0,0,0,0,0,0,0,0,0,0,0,-0.7065,-0.7065,0,-0.7094,-0.7094,-0.7095,-0.7079,-0.7079,-0.7078,-0.7077,-0.7107,-0.7108,-0.711,0,0,0,0,0,0,0,0,0,0,0,0,0,-0.6998,-0.6999,-0.7065,-0.7066,-0.7066,-0.7094,-0.7094,-0.7095,-0.708,-0.7079,-0.7078,-0.7077,-0.7106,-0.7108,-0.711,0,0,0,0,0,0,0,0,0,0,0,0,0,-0.7027,-0.7,-0.7065,-0.7062,-0.7062,-0.7094,-0.7094,-0.7095,-0.708,-0.7079,-0.7077,-0.7076,-0.7106,-0.7108,-0.711,-0.7147,0,0,-0.7117,-0.7118,0,0,0,0,0,0,0,0,-0.7025,-0.7029,-0.7062,-0.7062,-0.7062,-0.7082,-0.7081,-0.7112,-0.708,-0.7073,-0.7077,-0.7076,-0.71,-0.7102,-0.711,-0.7149,-0.715,-0.7117,-0.7119,-0.712,-0.712,0,0,0,0,0,0,0,-0.7023,-0.7028,-0.7077,-0.7062,-0.7062,-0.7059,-0.7062,-0.7087,-0.7092,-0.7073,-0.7072,-0.7076,-0.7099,-0.7108,-0.7111,-0.7151,-0.7117,-0.7119,-0.7121,-0.7122,-0.7222,-0.7223,0,0,0,0,0,0,-0.7021,-0.7026,-0.7076,-0.7077,-0.704,-0.7061,-0.7064,-0.7077,-0.7092,-0.7093,-0.7077,-0.7075,-0.7105,-0.7108,-0.7112,-0.7157,-0.712,-0.7122,-0.7123,-0.722,-0.7222,-0.7223,0,0,0,0,0,0,-0.702,-0.7026,-0.7074,-0.7052,-0.7058,-0.7063,-0.7078,-0.7078,-0.7087,-0.7095,-0.7096,-0.7085,-0.7104,-0.7109,-0.7139,-0.7158,-0.7123,-0.7125,-0.7219,-0.7221,-0.7223,-0.7247,0,0,0,0,0,0,-0.7018,-0.7025,-0.704,-0.7052,-0.7059,-0.7101,-0.7079,-0.7079,-0.709,-0.7088,-0.7102,-0.7104,-0.7103,-0.7136,-0.7141,-0.716,-0.7127,-0.7217,-0.722,-0.7222,-0.7245,-0.725,-0.7254,0,0,0,0,0,-0.7016,-0.7045,-0.704,-0.7046,-0.7077,-0.7102,-0.7106,-0.7105,-0.7092,-0.7106,-0.7112,-0.7103,-0.7155,-0.7139,-0.7145,-0.7165,-0.7216,-0.7219,-0.7222,-0.7243,-0.7249,-0.7254,0,0,0,0,0,0,-0.7035,-0.7047,-0.7042,-0.7076,-0.7088,-0.7099,-0.7118,-0.7111,-0.7128,-0.7125,-0.7123,-0.7127,-0.7158,-0.7164,-0.7147,-0.7202,-0.7183,-0.7188,-0.7197,-0.7203,-0.7208,-0.7206,-0.7129,0,0,0,0,0,-0.7043,-0.7063,-0.7072,-0.7102,-0.7108,-0.7112,-0.7123,-0.7121,-0.7134,-0.7139,-0.7146,-0.7159,-0.7178,-0.7191,-0.7208,-0.7245,-0.7249,-0.7262,-0.7267,-0.7271,-0.7275,-0.7295,-0.7302,-0.7233,-0.7233,-0.7233,0,0,-0.7061,-0.7069,-0.7082,-0.7106,-0.7115,-0.7136,-0.7116,-0.7139,-0.7154,-0.7142,-0.7172,-0.7177,-0.7191,-0.7225,-0.724,-0.7231,-0.7294,-0.7274,-0.7277,-0.7279,-0.7299,-0.7305,-0.7311,-0.7235,-0.7235,-0.7234,0,0,-0.7103,-0.7111,-0.7137,-0.7147,-0.7161,-0.7163,-0.7169,-0.7182,-0.7185,-0.7214,-0.7206,-0.7224,-0.7257,-0.7267,-0.7277,-0.7323,-0.7316,-0.7329,-0.7354,-0.7374,-0.7379,-0.7384,-0.7402,-0.7408,-0.7333,-0.7333,-0.7333,0,-0.7123,-0.7154,-0.7151,-0.7175,-0.7186,-0.7175,-0.7202,-0.7211,-0.7231,-0.7239,-0.7228,-0.7269,-0.7278,-0.7314,-0.7326,-0.7333,-0.7341,-0.7328,-0.7379,-0.7383,-0.7388,-0.7405,-0.7411,-0.7334,-0.7334,-0.7334,-0.7334,0,-0.7178,-0.7199,-0.7218,-0.7238,-0.725,-0.7275,-0.7277,-0.729,-0.7287,-0.7291,-0.7321,-0.7331,-0.7351,-0.7359,-0.7356,-0.7395,-0.7389,-0.7379,-0.736,-0.7396,-0.7412,-0.7418,-0.7337,-0.7336,-0.7336,-0.7335,0,0,-0.7234,-0.7251,-0.7259,-0.7267,-0.7282,-0.7299,-0.7323,-0.7343,-0.7355,-0.7368,-0.7389,-0.7417,-0.7407,-0.7418,-0.7416,-0.7433,-0.7471,-0.7421,-0.7421,-0.743,-0.7515,-0.7524,-0.7531,-0.7465,-0.7467,-0.7468,-0.7514,0,-0.7278,-0.7321,-0.732,-0.736,-0.738,-0.737,-0.7392,-0.7403,-0.7407,-0.7425,-0.7428,-0.7449,-0.7434,-0.744,-0.7457,-0.7462,-0.7488,-0.7459,-0.7486,-0.7487,-0.7484,-0.7539,-0.7549,-0.7593,-0.752,-0.7521,-0.7522,0,-0.7336,-0.7352,-0.7394,-0.7406,-0.7414,-0.7434,-0.7452,-0.7468,-0.7481,-0.7483,-0.7495,-0.749,-0.7515,-0.7495,-0.7529,-0.751,-0.752,-0.7525,-0.7526,-0.753,-0.7507,-0.7545,-0.7606,-0.7613,-0.7531,-0.7531,-0.753,0,-0.7374,-0.7406,-0.7435,-0.7443,-0.7457,-0.7471,-0.7478,-0.749,-0.7501,-0.7517,-0.7525,-0.7543,-0.7553,-0.7567,-0.7568,-0.7553,-0.7603,-0.7583,-0.7606,-0.7606,-0.7618,-0.7617,-0.7683,-0.7623,-0.7623,-0.7622,-0.7622,0,-0.7425,-0.7451,-0.7453,-0.7471,-0.75,-0.7498,-0.7527,-0.7533,-0.7543,-0.7562,-0.7555,-0.7573,-0.7572,-0.759,-0.7591,-0.762,-0.7624,-0.7626,-0.7626,-0.7628,-0.7628,-0.7636,-0.7633,-0.7624,-0.7624,-0.7624,-0.7623,0,-0.7473,-0.7475,-0.7507,-0.7518,-0.7521,-0.7542,-0.7552,-0.757,-0.7572,-0.7597,-0.7602,-0.7607,-0.7628,-0.763,-0.7654,-0.7655,-0.769,-0.7686,-0.7686,-0.7686,-0.7709,-0.7708,-0.7783,-0.7793,-0.7725,-0.7726,-0.7727,0,-0.7506,-0.7526,-0.7539,-0.7552,-0.7559,-0.7579,-0.7591,-0.759,-0.7603,-0.7619,-0.7635,-0.7655,-0.7672,-0.7706,-0.7712,-0.7731,-0.7728,-0.7753,-0.7731,-0.7732,-0.773,-0.7729,-0.7731,-0.7758,-0.7758,-0.7759,-0.776,0,-0.7564,-0.7564,-0.7582,-0.76,-0.7615,-0.7629,-0.7642,-0.7653,-0.7653,-0.7668,-0.769,-0.7703,-0.7728,-0.7749,-0.7767,-0.7774,-0.7767,-0.7766,-0.7773,-0.7775,-0.7775,-0.7776,-0.7699,-0.7765,-0.7764,-0.7764,-0.7764,-0.7763,-0.7607,-0.7624,-0.7637,-0.7657,-0.7666,-0.7679,-0.7696,-0.7701,-0.7719,-0.774,-0.7737,-0.7762,-0.7774,-0.7798,-0.7806,-0.7825,-0.7817,-0.7826,-0.7829,-0.7831,-0.7834,-0.7771,-0.7829,-0.7828,-0.7828,-0.7828,-0.7828,0,-0.7665,-0.7673,-0.7691,-0.771,-0.7726,-0.7718,-0.7732,-0.7746,-0.7768,-0.7779,-0.7796,-0.7821,-0.7841,-0.7848,-0.7867,-0.7881,-0.7879,-0.7887,-0.7886,-0.7888,-0.784,-0.7833,-0.7889,-0.7889,-0.7889,-0.7889,-0.7888,-0.7888,-0.7698,-0.7728,-0.7729,-0.7764,-0.7771,-0.7795,-0.7804,-0.7815,-0.7825,-0.7854,-0.787,-0.7874,-0.7884,-0.7905,-0.7923,-0.7924,-0.7932,-0.7942,-0.7942,-0.7897,-0.7891,-0.7886,-0.7879,-0.7943,-0.7943,-0.7988,-0.7989,-0.7989]},{"header":{"parameterUnit":"m.s-1","parameterCategory":1,"la1":30.2991,"la2":30.254,"lo1":-89.0895,"lo2":-89.0444,"dy":0.0017,"dx":0.0017,"nx":28,"ny":28,"refTime":"2024-04-12T21:00:00:Z","depth":0,"parameterNumber":3,"parameterNumberName":"V-component_of_WINDS"},"data":[0,0,0,0,0,0,0,0,0,0,0,0,0,0,0,0,0,0,0,0,0,0,0,0,0,0,0,0,0,0,0,0,0,0,0,0,0,0,0,0,0,0,0,0,0,0,0,0,0,0,0,0,0,0,0,0,0,0,-2.5066,-2.5067,0,-2.5174,-2.5175,-2.5177,-2.5166,-2.5165,-2.5163,-2.5161,-2.5271,-2.5275,-2.528,0,0,0,0,0,0,0,0,0,0,0,0,0,-2.4848,-2.4852,-2.5066,-2.5067,-2.5068,-2.5174,-2.5175,-2.5177,-2.5167,-2.5164,-2.5162,-2.5161,-2.527,-2.5275,-2.528,0,0,0,0,0,0,0,0,0,0,0,0,0,-2.4948,-2.4854,-2.5065,-2.5076,-2.5078,-2.5174,-2.5176,-2.5177,-2.5167,-2.5164,-2.5162,-2.516,-2.5268,-2.5274,-2.5281,-2.5373,0,0,-2.5301,-2.5304,0,0,0,0,0,0,0,0,-2.4943,-2.4956,-2.5073,-2.5075,-2.5078,-2.5154,-2.5139,-2.5243,-2.5168,-2.5133,-2.5161,-2.5158,-2.5234,-2.5243,-2.5269,-2.5378,-2.5383,-2.5302,-2.5306,-2.5309,-2.5311,0,0,0,0,0,0,0,-2.4936,-2.4952,-2.5108,-2.5075,-2.5078,-2.5075,-2.5086,-2.5159,-2.5196,-2.5136,-2.5135,-2.5148,-2.5235,-2.5263,-2.5272,-2.5384,-2.5302,-2.5308,-2.5312,-2.5315,-2.5575,-2.5578,0,0,0,0,0,0,-2.4927,-2.4946,-2.5105,-2.5112,-2.5003,-2.5081,-2.5094,-2.5132,-2.5196,-2.5203,-2.5151,-2.5148,-2.5253,-2.5264,-2.5276,-2.5388,-2.5309,-2.5315,-2.5319,-2.5572,-2.5576,-2.5579,0,0,0,0,0,0,-2.4922,-2.4941,-2.5101,-2.5029,-2.5049,-2.5087,-2.5131,-2.5136,-2.5164,-2.5207,-2.5213,-2.5172,-2.5251,-2.5266,-2.5349,-2.5392,-2.5318,-2.5324,-2.5569,-2.5573,-2.5577,-2.5614,0,0,0,0,0,0,-2.4916,-2.4939,-2.4975,-2.503,-2.5053,-2.5173,-2.5133,-2.514,-2.5175,-2.5173,-2.5229,-2.5236,-2.525,-2.5339,-2.5356,-2.54,-2.533,-2.5565,-2.5571,-2.5576,-2.5609,-2.5619,-2.5628,0,0,0,0,0,-2.4908,-2.498,-2.4977,-2.4996,-2.5098,-2.5175,-2.5188,-2.5204,-2.5179,-2.5215,-2.5243,-2.5234,-2.5384,-2.5348,-2.5366,-2.5413,-2.5563,-2.5569,-2.5576,-2.5605,-2.5617,-2.5627,0,0,0,0,0,0,-2.4928,-2.4987,-2.4984,-2.5076,-2.5121,-2.5173,-2.5219,-2.5216,-2.5269,-2.5264,-2.5281,-2.5294,-2.5378,-2.5403,-2.5361,-2.5506,-2.547,-2.5481,-2.5486,-2.5498,-2.5507,-2.5499,-2.5335,0,0,0,0,0,-2.4944,-2.5002,-2.505,-2.5127,-2.5149,-2.5181,-2.5215,-2.5223,-2.527,-2.5289,-2.5322,-2.5368,-2.5425,-2.5463,-2.5518,-2.5613,-2.5625,-2.5654,-2.5663,-2.5671,-2.568,-2.5733,-2.5746,-2.56,-2.56,-2.56,0,0,-2.4976,-2.5015,-2.5051,-2.5132,-2.5167,-2.5227,-2.5196,-2.5261,-2.5305,-2.5298,-2.5379,-2.5406,-2.5457,-2.5547,-2.5588,-2.5571,-2.5723,-2.5679,-2.5684,-2.569,-2.5741,-2.5754,-2.5767,-2.5605,-2.5604,-2.5603,0,0,-2.5065,-2.51,-2.5169,-2.5205,-2.526,-2.528,-2.5297,-2.535,-2.5368,-2.5449,-2.5445,-2.5498,-2.5597,-2.5635,-2.5666,-2.5771,-2.5765,-2.5788,-2.5836,-2.5888,-2.5899,-2.591,-2.5948,-2.5961,-2.5797,-2.5797,-2.5797,0,-2.5098,-2.5188,-2.5204,-2.527,-2.5306,-2.5303,-2.5372,-2.5406,-2.5476,-2.5501,-2.5481,-2.5606,-2.564,-2.5739,-2.5765,-2.579,-2.581,-2.5782,-2.5897,-2.5907,-2.5917,-2.5954,-2.5968,-2.58,-2.5799,-2.5799,-2.5799,0,-2.5226,-2.5289,-2.5338,-2.5406,-2.5448,-2.5515,-2.5541,-2.5581,-2.5585,-2.5608,-2.5691,-2.5733,-2.5797,-2.5821,-2.5826,-2.5921,-2.5909,-2.5893,-2.5857,-2.5933,-2.5968,-2.5982,-2.5803,-2.5802,-2.5802,-2.5801,0,0,-2.5331,-2.5408,-2.5426,-2.5458,-2.5518,-2.5567,-2.5634,-2.5697,-2.5732,-2.578,-2.5837,-2.5921,-2.5907,-2.5943,-2.5952,-2.5997,-2.6079,-2.5976,-2.5977,-2.5994,-2.6187,-2.6199,-2.6215,-2.6075,-2.6078,-2.608,-2.6183,0,-2.5427,-2.5547,-2.5564,-2.5669,-2.5728,-2.5726,-2.5784,-2.5828,-2.5851,-2.5904,-2.5928,-2.5988,-2.5965,-2.5987,-2.6031,-2.6059,-2.6118,-2.6052,-2.6128,-2.6131,-2.6117,-2.6233,-2.6247,-2.6342,-2.6196,-2.6199,-2.62,0,-2.5555,-2.5608,-2.572,-2.5774,-2.5799,-2.5851,-2.5911,-2.5962,-2.6011,-2.6024,-2.6066,-2.6069,-2.6139,-2.61,-2.6197,-2.6152,-2.6184,-2.6202,-2.6206,-2.6215,-2.6171,-2.6246,-2.6373,-2.6387,-2.6222,-2.622,-2.6219,0,-2.5622,-2.5721,-2.5801,-2.5828,-2.5892,-2.5929,-2.5957,-2.6004,-2.6042,-2.6094,-2.6119,-2.6178,-2.6211,-2.6257,-2.6276,-2.6246,-2.6372,-2.6335,-2.6386,-2.6385,-2.6413,-2.6411,-2.6548,-2.6432,-2.6432,-2.6432,-2.6431,0,-2.5728,-2.5797,-2.5832,-2.5881,-2.5959,-2.5977,-2.6052,-2.6079,-2.6121,-2.6176,-2.6177,-2.6228,-2.6251,-2.6306,-2.6322,-2.64,-2.6414,-2.6427,-2.6431,-2.6428,-2.6426,-2.645,-2.6444,-2.6435,-2.6435,-2.6434,-2.6433,0,-2.5816,-2.5842,-2.593,-2.5983,-2.5999,-2.6053,-2.6099,-2.6147,-2.6169,-2.6238,-2.6256,-2.6291,-2.6356,-2.638,-2.6458,-2.6469,-2.656,-2.6557,-2.6543,-2.6545,-2.6595,-2.659,-2.6752,-2.6775,-2.6643,-2.6644,-2.6645,0,-2.5882,-2.5935,-2.5995,-2.6032,-2.6062,-2.6121,-2.616,-2.618,-2.622,-2.6281,-2.6321,-2.6386,-2.6439,-2.6542,-2.6574,-2.6635,-2.6634,-2.6687,-2.6643,-2.6639,-2.6636,-2.6634,-2.6639,-2.6695,-2.6696,-2.6698,-2.6698,0,-2.5998,-2.6008,-2.6064,-2.6125,-2.6171,-2.622,-2.6267,-2.6297,-2.6325,-2.6369,-2.6436,-2.6477,-2.6558,-2.6622,-2.6684,-2.6713,-2.6711,-2.6712,-2.6727,-2.6725,-2.6715,-2.6722,-2.6566,-2.6708,-2.6707,-2.6707,-2.6706,-2.6706,-2.6078,-2.6125,-2.6175,-2.6238,-2.6275,-2.632,-2.6368,-2.6397,-2.6453,-2.6521,-2.6529,-2.66,-2.6649,-2.6732,-2.6764,-2.682,-2.6806,-2.6828,-2.6833,-2.6839,-2.6843,-2.6706,-2.6831,-2.6831,-2.6831,-2.6831,-2.683,0,-2.6194,-2.6226,-2.6284,-2.635,-2.64,-2.6394,-2.6446,-2.6487,-2.6551,-2.6596,-2.6649,-2.6725,-2.6788,-2.6826,-2.6888,-2.6926,-2.6927,-2.6942,-2.694,-2.6947,-2.6851,-2.6833,-2.6941,-2.6941,-2.6941,-2.6941,-2.6941,-2.6941,-2.6261,-2.6341,-2.6358,-2.6457,-2.6489,-2.656,-2.659,-2.6631,-2.6668,-2.6754,-2.6806,-2.6831,-2.6873,-2.694,-2.6997,-2.7006,-2.703,-2.7047,-2.7055,-2.6965,-2.6954,-2.6943,-2.6925,-2.7051,-2.7051,-2.7146,-2.7147,-2.7148]}]]